Location: Skalnate Pleso
(49.1889°N, 20.2450°E)
Time: 15:35:14
(UTC+01:00)

Cosmos 1315 Rocket - Pass Details

Date: 19 November 2019
Orbit: 530 x 568 km, 81.2° (Epoch: 04 December)

Event Time Altitude Azimuth Distance (km) Brightness Sun altitude
Rises 05:59:10 0° 347° (NNW) 2,721 6.0 -9.1°
Reaches altitude 10° 06:01:19 10° 347° (NNW) 1,829 5.2 -8.7°
Maximum altitude 06:05:22 87° 259° (WSW) 560 2.8 -8.1°
Drops below altitude 10° 06:09:25 10° 171° (S) 1,837 5.9 -7.5°
Sets 06:11:35 0° 171° (S) 2,733 6.8 -7.2°
